SZ-21 MODULE

基本信息
目录编号:
66515
目录名称:
SZ-21 MODULE
国际标识:
2025-246C
轨道中心:
EARTH
卫星名称:
SZ-21 MODULE
卫星全名:
SZ-21 MODULE
卫星状态:
在轨 (已飞行45 天)
发射日期:
2025-10-31 UTC
国别 :
中国 (CN)
星等 :
--
轨道信息
数据来源 国际轨道数据
星历时间: 2025-12-14T14:21:31+0800
1天前
查看轨道信息
半长轴: 6758.342km
偏心率: 0.0006253
轨道倾角: 41.477°
近地点辐角 268.458°
升交点赤经 6.742°
平近点角 91.554°
近地点: 375.981km
远地点: 384.433km
周期: 92.155分钟
每日圈数: 15.625812
详细信息
使用方式:
暂无
2D轨道图
3D轨道图
轨道高度分析图
轨道倾角分析图
轨道综合分析图
查看轨道综合分析图